Trinidad, CO

5:33 AM MDT on March 23, 2017 (GMT -0600)
Stokes

Weather History for KTAD - July, 2013

Change the Weather History Date:

Tuesday, July 16, 2013

  Actual Average Record
Temperature  
Mean Temperature 67 °F 74 °F  
Max Temperature 79 °F 89 °F 99 °F (1982)
Min Temperature 54 °F 59 °F 51 °F (2014)
Cooling Degree Days 2 9  
Month to date cooling degree days 154 138  
Year to date cooling degree days 498 307  
Since 1 June cooling degree days 435 279  
Growing Degree Days 17 (Base 50)    
Moisture  
Dew Point 50 °F    
Average Humidity 58    
Maximum Humidity 86    
Minimum Humidity 30    
Precipitation  
Precipitation 0.00 in 0.08 in 1.40 in (1998)
Month to date precipitation 0.83  
Year to date precipitation 3.85  
Sea Level Pressure  
Sea Level Pressure 30.09 in    
Wind  
Wind Speed 7 mph (SE)    
Max Wind Speed 16 mph    
Max Gust Speed 23 mph    
Visibility 10 miles    
Events      
T = Trace of Precipitation, MM = Missing Value Source: NWS Daily Summary

Daily Weather History Graph

Daily Weather History Graph

Search for Another Location

Airport or City:

Trip Planner

Search our weather history database for the weather conditions in past years. The results will help you decide how hot, cold, wet, or windy it might be!

Date:

Astronomy

Jul. 16, 2013 Rise Set
Actual Time 5:49 AM MDT 8:16 PM MDT
Civil Twilight 5:19 AM MDT 8:46 PM MDT
Nautical Twilight 4:42 AM MDT 9:23 PM MDT
Astronomical Twilight 4:01 AM MDT 10:04 PM MDT
Moon 2:04 PM MDT (7/16) 12:16 AM MDT (7/16)
Length of Visible Light 15h 27m
Length of Day
14h 27m
First Quarter, 57% of the Moon is Illuminated
Jul 16
First Quarter
Jul 22
Full
Jul 29
Last Quarter
Aug 6
New
Aug 14
First Quarter

Hourly Weather History & Observations

Time (MDT) Temp. Dew Point Humidity Pressure Visibility Wind Dir Wind Speed Gust Speed Precip Events Conditions
12:54 AM 59.0 °F 52.0 °F 78% 30.07 in 10.0 mi Calm Calm - N/A   Mostly Cloudy
1:54 AM 59.0 °F 52.0 °F 78% 30.04 in 10.0 mi West 8.1 mph - N/A   Overcast
2:54 AM 57.9 °F 53.1 °F 84% 30.05 in 10.0 mi NNW 5.8 mph - N/A   Scattered Clouds
3:54 AM 57.9 °F 52.0 °F 81% 30.02 in 10.0 mi WNW 8.1 mph - N/A   Clear
4:54 AM 55.9 °F 51.1 °F 84% 30.05 in 9.0 mi Calm Calm - N/A   Partly Cloudy
5:54 AM 57.0 °F 53.1 °F 87% 30.06 in 9.0 mi WSW 5.8 mph - N/A   Overcast
6:54 AM 59.0 °F 52.0 °F 78% 30.07 in 10.0 mi WSW 6.9 mph - N/A   Overcast
7:54 AM 61.0 °F 52.0 °F 72% 30.08 in 10.0 mi WSW 8.1 mph - N/A   Mostly Cloudy
8:54 AM 64.0 °F 50.0 °F 60% 30.10 in 10.0 mi South 3.5 mph - N/A   Clear
9:25 AM 64.4 °F 50.0 °F 59% 30.30 in 10.0 mi Calm Calm - N/A   Mostly Cloudy
9:40 AM 64.4 °F 50.0 °F 59% 30.30 in 10.0 mi SSE 3.5 mph - N/A   Mostly Cloudy
9:54 AM 66.0 °F 51.1 °F 59% 30.10 in 10.0 mi ESE 4.6 mph - N/A   Mostly Cloudy
10:54 AM 68.0 °F 51.1 °F 55% 30.10 in 10.0 mi Variable 3.5 mph - N/A   Mostly Cloudy
11:54 AM 71.1 °F 48.0 °F 44% 30.09 in 10.0 mi East 3.5 mph - N/A   Clear
12:54 PM 73.9 °F 46.0 °F 37% 30.06 in 10.0 mi Variable 4.6 mph - N/A   Scattered Clouds
1:54 PM 77.0 °F 46.9 °F 34% 30.05 in 10.0 mi ESE 12.7 mph 17.3 mph N/A   Partly Cloudy
2:54 PM 79.0 °F 45.0 °F 30% 30.04 in 10.0 mi ESE 11.5 mph 17.3 mph N/A   Mostly Cloudy
3:54 PM 75.9 °F 44.1 °F 32% 30.04 in 10.0 mi East 4.6 mph - N/A   Overcast
4:54 PM 75.0 °F 46.9 °F 37% 30.05 in 10.0 mi ESE 11.5 mph 17.3 mph N/A   Overcast
5:54 PM 73.9 °F 46.9 °F 38% 30.05 in 10.0 mi East 10.4 mph - N/A   Mostly Cloudy
6:54 PM 73.9 °F 46.0 °F 37% 30.05 in 10.0 mi ESE 9.2 mph - N/A   Clear
7:54 PM 71.1 °F 48.0 °F 44% 30.07 in 10.0 mi ESE 13.8 mph - N/A   Clear
8:54 PM 68.0 °F 50.0 °F 52% 30.10 in 10.0 mi ESE 11.5 mph - N/A   Partly Cloudy
9:54 PM 66.0 °F 51.1 °F 59% 30.13 in 10.0 mi SE 11.5 mph - N/A   Clear
10:54 PM 64.0 °F 52.0 °F 65% 30.15 in 10.0 mi SE 10.4 mph - N/A   Clear
11:54 PM 62.1 °F 52.0 °F 70% 30.16 in 10.0 mi Calm Calm - N/A   Clear